Regional Weather Roundup
Issued by NWS

Home | Current Version | Previous Version | Text Only | Print | Product List | Glossary On
Versions: 1 2 3 4 5 6 7 8 9 10 11 12 13 14 15 16 17 18 19 20 21 22 23 24 25 26 27 28 29 30 31 32 33 34 35 36 37 38 39 40 41 42 43 44 45 46 47 48 49 50
000
ASUS43 KMKX 201200
RWRWI

WISCONSIN REGIONAL WEATHER ROUNDUP
NATIONAL WEATHER SERVICE MILWAUKEE/SULLIVAN WI
600 AM CST SAT DEC 20 2014

NOTE: "FAIR" INDICATES FEW OR NO CLOUDS BELOW 12,000 FEET WITH NO
SIGNIFICANT WEATHER AND/OR OBSTRUCTIONS TO VISIBILITY.

WIZ001-002-006>008-014>016-023>028-201300-
NORTHWEST WISCONSIN

CITY           SKY/WX    TMP DP  RH WIND       PRES   REMARKS
SUPERIOR ARPT  CLOUDY    28  25  88 S3        30.17S
ASHLAND        CLOUDY    27  23  85 CALM      30.20R
6HR MIN TEMP:  26; 6HR MAX TEMP:  27;

HAYWARD        CLOUDY    26  22  84 S6        30.17R WCI  19
6HR MIN TEMP:  25; 6HR MAX TEMP:  26;

SIREN          CLOUDY    28  24  84 S6        30.15S WCI  22
CUMBERLAND     CLOUDY    27  23  86 S6        30.15S WCI  20
RICE LAKE      CLOUDY    27  24  85 SE6       30.18S WCI  21
CHETEK         CLOUDY    27  23  87 SE6       30.18S WCI  20
LADYSMITH      CLOUDY    27  24  88 S6        30.19F WCI  20
EAU CLAIRE     NOT AVBL
MENOMONIE      CLOUDY    29  24  81 SE7       30.19F WCI  22
NEW RICHMOND   CLOUDY    28  26  90 S7        30.16S WCI  21
OSCEOLA        CLOUDY    29  26  87 SE8       30.18S WCI  21
$$

WIZ003>005-009-010-017-018-201300-
NORTH CENTRAL WISCONSIN

CITY           SKY/WX    TMP DP  RH WIND       PRES   REMARKS
MANITOWISH WTR CLOUDY    22  22 100 S3        30.16S
ARBOR VITAE    CLOUDY    24  22  93 S3        30.16F
WOODRUFF       CLOUDY    24  22  93 S3        30.16F
RHINELANDER    CLOUDY    22  20  92 CALM      30.18S FOG
6HR MIN TEMP:  20; 6HR MAX TEMP:  22;

EAGLE RIVER    CLOUDY    21  21  98 CALM      30.17S FOG
LAND O LAKES   CLOUDY    21  20  96 CALM      30.18S
PHILLIPS       CLOUDY    23  22  94 S5        30.16F WCI  17
TOMAHAWK       CLOUDY    23  21  93 CALM      30.18F FOG
MEDFORD        CLOUDY    23  22  95 S6        30.18S FOG     WCI  16
MERRILL        CLOUDY    24  23  97 CALM      30.20S FOG
$$

WIZ029-030-035-036-043>047-201300-
CENTRAL WISCONSIN

CITY           SKY/WX    TMP DP  RH WIND       PRES   REMARKS
WAUSAU         CLOUDY    24  21  88 S5        30.20F FOG     WCI  18
6HR MIN TEMP:  23; 6HR MAX TEMP:  24;

MOSINEE        CLOUDY    23  23 100 S6        30.22F FOG     WCI  16
MARSHFIELD     CLOUDY    25  22  88 S7        30.20F WCI  17
6HR MIN TEMP:  24; 6HR MAX TEMP:  25;

STEVENS POINT  CLOUDY    23  20  89 S5        30.24S WCI  17
WAUPACA        CLOUDY    27  23  84 CALM      30.26S
WAUTOMA        NOT AVBL
WISC RAPIDS    CLOUDY    24  21  88 SE3       30.25S FOG
6HR MIN TEMP:  22; 6HR MAX TEMP:  24;

CAMP DOUGLAS   CLOUDY    27  27 100 SE3       30.23S
$$

WIZ011>013-019>022-031-037>040-048>050-201300-
NORTHEAST WISCONSIN

CITY           SKY/WX    TMP DP  RH WIND       PRES   REMARKS
ANTIGO         CLOUDY    21  20  97 S3        30.20S FOG
SHAWANO        CLOUDY    22  20  89 CALM      30.26F
OCONTO         MOCLDY    14  14  97 CALM      30.28S
STURGEON BAY   CLOUDY    25  19  80 W3        30.28S
6HR MIN TEMP:  18; 6HR MAX TEMP:  25;

GREEN BAY      MOCLDY    21  19  92 CALM      30.27F
6HR MIN TEMP:  20; 6HR MAX TEMP:  22;

MANITOWOC      NOT AVBL
APPLETON       MOCLDY    23  21  93 CALM      30.26S
CLINTONVILLE   CLOUDY    23  21  93 CALM      30.26S
OSHKOSH        CLOUDY    24  20  84 CALM      30.26S
6HR MIN TEMP:  19; 6HR MAX TEMP:  24;

$$

WIZ032>034-041-042-053>061-201300-
SOUTHWEST WISCONSIN

CITY           SKY/WX    TMP DP  RH WIND       PRES   REMARKS
LA CROSSE      CLOUDY    30  24  78 SE7       30.22S WCI  23
6HR MIN TEMP:  30; 6HR MAX TEMP:  30;

SPARTA         CLOUDY    28  23  82 CALM      30.23S
VIROQUA        CLOUDY    26  26  99 SE8       30.20S WCI  18
BOSCOBEL       CLOUDY    29  24  82 CALM      30.24F
6HR MIN TEMP:  29; 6HR MAX TEMP:  29; 6HR PCP: TRACE;

PRAIRIE DU CHI CLOUDY    28  25  86 E5        30.23F WCI  23
PLATTEVILLE    CLOUDY    28  26  93 CALM      30.24S
$$

WIZ056-057-062-063-064-067-068-201300-
SOUTH CENTRAL WISCONSIN

CITY           SKY/WX    TMP DP  RH WIND       PRES   REMARKS
REEDSBURG      FLURRIES  26  23  90 CALM      30.24S
BARABOO/DELLS  LGT SNOW  26  23  89 CALM      30.24S
LONE ROCK      CLOUDY    30  23  75 E6        30.25F WCI  24
MINERAL POINT  CLOUDY    28  27  93 SE3       30.22F FOG
MADISON        FLURRIES  27  23  85 CALM      30.25S
6HR MIN TEMP:  26; 6HR MAX TEMP:  27; 6HR PCP: TRACE;

MIDDLETON      CLOUDY    28  25  86 CALM      30.25S
WATERTOWN      CLOUDY    25  23  93 CALM      30.25S
MONROE         CLOUDY    27  27 100 CALM      30.23S FOG
JANESVILLE     CLOUDY    28  25  86 CALM      30.26R
$$

WIZ051-052-058>065-066-070>072-201300-
SOUTHEAST WISCONSIN

CITY           SKY/WX    TMP DP  RH WIND       PRES   REMARKS
MILWAUKEE      CLOUDY    27  18  69 W3        30.27S
6HR MIN TEMP:  27; 6HR MAX TEMP:  28;

WAUKESHA       CLOUDY    21  18  86 CALM      30.27R
MILWAUKEE/TIMM CLOUDY    27  19  74 W3        30.27S
RACINE         CLOUDY    27  19  72 W5        30.29S WCI  22
6HR MIN TEMP:  27; 6HR MAX TEMP:  28;

BURLINGTON     CLOUDY    24  20  85 CALM      30.26S
KENOSHA        CLOUDY    27  21  78 NW3       30.27S
6HR MIN TEMP:  27; 6HR MAX TEMP:  28;

FOND DU LAC    CLOUDY    23  19  85 CALM      30.26S
6HR MIN TEMP:  19; 6HR MAX TEMP:  23;

SHEBOYGAN      CLOUDY    26  20  77 NW3       30.26S
6HR MIN TEMP:  26; 6HR MAX TEMP:  27;

WEST BEND      CLOUDY    27  19  74 CALM      30.25S
JUNEAU         CLOUDY    24  21  88 CALM      30.26F
$$

LSZ147-162-201300-
LAKE SUPERIOR

STATION/POSITION TIME  TEMP    WIND        PRES    WAVE
                       AIR SEA DIR/SP/G            HT/PER
                 (UTC) (F)     (DEG/KT/KT) (MB)    (FT/S)
DEVILS ISLAND    1100   29     200/  7/  9 1023.1S
PORT WING        1140   28     170/  7/  8 1022.0S
SAXON HARBOR     1100   27     180/  2/  7 1022.7S
$$

LMZ867-665-643>646-201300-
LAKE MICHIGAN

STATION/POSITION TIME  TEMP    WIND        PRES    WAVE
                       AIR SEA DIR/SP/G            HT/PER
                 (UTC) (F)     (DEG/KT/KT) (MB)    (FT/S)
CHAMBERS ISLAND  1100   18        CALM     1025.4R
NORTHPORT PIER   1127   22      CALM  /  3 1025.1S
SISTER BAY       0943             CALM       N/A
KEWAUNEE LAKESHO 1100   26     300/  4/  7 1024.2R
SHEBOYGAN LAKESH 1100   28 34  310/  5/  6 1026.0F
PORT WASHINGTON  1100   28     300/  3/  4 1025.7S
MILWAUKEE LAKESH 1100   28     270/  5/  7   N/A
KENOSHA   LAKESH 1100   27     290/  6/  8 1025.1S
$$

TC  - TEMPERATURE IN CELSIUS
VSB - VISIBILITY IN STATUTE MILES
WCI - WIND CHILL INDEX
HX  - HEAT INDEX




USA.gov is the U.S. government's official web portal to all federal, state and local government web resources and services.